This is the latest recevied weather packets stored in our database for station/object K9ZOG. If no packets are shown the sender has not sent any weather packets the latest 10 day(s).
| Time | Temp. | Humidity | Pressure | Rain* | Wind** | Luminosity | Snow |
|---|---|---|---|---|---|---|---|
| 1777925056 | 23.33° C | 45% | 999.9 hPa | 0 mm | - | 577 W/m² | - |
| 1777924754 | 22.78° C | 46% | 1000 hPa | 0 mm | - | 476 W/m² | - |
| 1777924457 | 23.33° C | 46% | 1000 hPa | 0 mm | - | 479 W/m² | - |
| 1777924154 | 22.78° C | 46% | 1000 hPa | 0 mm | - | 740 W/m² | - |
| 1777923857 | 22.78° C | 46% | 1000 hPa | 0 mm | - | 684 W/m² | - |
| 1777923553 | 22.78° C | 46% | 1000 hPa | 0 mm | - | 715 W/m² | - |
| 1777923253 | 22.78° C | 46% | 1000.2 hPa | 0 mm | - | 730 W/m² | - |
| 1777922961 | 22.22° C | 46% | 1000.2 hPa | 0 mm | - | 734 W/m² | - |
| 1777922652 | 22.22° C | 46% | 1000.2 hPa | 0 mm | - | 601 W/m² | - |
| 1777922353 | 22.78° C | 46% | 1000.2 hPa | 0 mm | - | 621 W/m² | - |
| 1777922053 | 22.78° C | 45% | 1000.4 hPa | 0 mm | - | 634 W/m² | - |
| 1777921752 | 22.78° C | 45% | 1000.2 hPa | 0 mm | - | 620 W/m² | - |
| 1777921455 | 22.78° C | 44% | 1000.3 hPa | 0 mm | - | 813 W/m² | - |
| 1777921154 | 22.78° C | 44% | 1000.2 hPa | 0 mm | - | 742 W/m² | - |
| 1777920853 | 22.78° C | 43% | 1000.2 hPa | 0 mm | - | 808 W/m² | - |
| 1777920553 | 22.78° C | 43% | 1000.3 hPa | 0 mm | - | 737 W/m² | - |
| 1777920253 | 22.78° C | 43% | 1000.4 hPa | 0 mm | - | 838 W/m² | - |
| 1777919958 | 22.78° C | 41% | 1000.4 hPa | 0 mm | - | 845 W/m² | - |
| 1777919653 | 22.78° C | 41% | 1000.3 hPa | 0 mm | - | 893 W/m² | - |
| 1777919066 | 22.78° C | 40% | 1000.3 hPa | 0 mm | - | 763 W/m² | - |
| 1777918755 | 22.78° C | 38% | 1000.3 hPa | 0 mm | - | 718 W/m² | - |
| 1777918454 | 22.78° C | 38% | 1000.3 hPa | 0 mm | - | 742 W/m² | - |
| 1777918154 | 22.78° C | 39% | 1000.4 hPa | 0 mm | - | 585 W/m² | - |
| 1777917854 | 22.78° C | 38% | 1000.5 hPa | 0 mm | - | 775 W/m² | - |
| 1777917555 | 22.22° C | 40% | 1000.6 hPa | 0 mm | - | 875 W/m² | - |
* Rain latest hour (hover to see other rain measurements)
** Current wind speed in m/s (hover to see current wind gust speed)